Please be sure to check the latest weather conditions by clicking the link and viewing our local weather information!

Check Weather

Welcome to Lakeway Airpark (3R9)

FromTheAir

We’re a community airpark nestled within the town of Lakeway, Texas (17 miles northwest of downtown Austin).

Lakeway Airpark, Inc. was formed by Lakeway residents and interested parties to own and manage Lakeway Airpark (3R9).

The Airpark is a privately owned not for profit public use airport for residents and guests of Lakeway. No public funds are used and the airport is supported by fees and fuel sales at the airport.

Lakeway Airpark is an unmanned facility open for use from Sunrise to Sunset seven days a week. Takeoffs and landings are not permitted at night, between Sunset and Sunrise, by City Ordinance.

Quick Weather Info

Available data for KSMF from the past 2 hours

METAR
KSMF 280953Z 15010KT 10SM CLR 21/11 A2989 RMK AO2 SLP122 T02060106 $
KSMF 280853Z 14009KT 10SM FEW200 21/11 A2989 RMK AO2 SLP121 T02060111 50005 $
TAF
KSMF 280530Z 2806/2906 17005KT P6SM SCT200 FM282100 20007KT P6SM BKN200